国际通讯卫星 802星 (INTELSAT 802 (IS-802))

导读 | 星芒AI

INTELSAT 802(IS-802)是国际通信卫星组织(INTELSAT)运营的一颗地球静止轨道通信卫星,主要用于提供跨大西洋的广播和通信服务。该卫星搭载C波段和Ku波段转发器,支持电视广播、数据传输和远程通信等应用。IS-802于2000年代初发射,部署在东经335度轨道位置,为欧洲、非洲和中东地区提供服务。作为INTELSAT现代卫星舰队的一部分,IS-802在提升国际通信能力和广播覆盖方面发挥了重要作用。

基本信息
目录编号:
24846
目录名称:
INTELSAT 802
国际标识:
1997-031A
轨道中心:
EARTH
卫星名称:
国际通讯卫星 802星
卫星全名:
国际通讯卫星 802星 (INTELSAT 802 (IS-802))
卫星状态:
在轨 (已飞行10400 天)
发射日期:
1997-06-25 UTC
国别 :
(ITSO)
星等 :
--
轨道信息
数据来源 国际轨道数据 AOE轨道数据
星历时间 2025-12-14T09:08:31+0800
1天前
查看轨道信息
2025-12-15T07:00:00+0800
9小时前
查看轨道信息
半长轴 42782.238km 42782.383km
偏心率 0.0025773 0.002559
轨道倾角 11.021° 11.023°
近地点辐角 278.958° 279.169°
升交点赤经 44.516° 44.508°
平近点角 75.109° 36.578°
近地点 36293.84km 36294.767km
远地点 36514.366km 36513.729km
周期 1467.760分钟 1467.767分钟
每日圈数 0.981087 0.981082
详细信息
卫星平台:
AS-7000
平衡模式:
三轴稳定
覆盖范围:
全球
运营商:
国际卫星通信公司
运营商所在国:
美国
制造商(研发单位):
洛克希德·马丁公司
制造商所在国:
美国
使用方式:
暂无
卫星简介
从1965年4月至1984年3月,国际通信卫星组织发射了5代、6种不同性能的卫星共计35颗,除6颗卫星因运载火箭和远地点发动机故障而发射失败外,其余29颗卫星均被送到了预定的静止轨道位置。1984年8月前后,国际通信卫星组织利用部署在大西洋、太平洋、印度洋上空的15颗国际通信卫星,为遍布世界各地170多个国家或地区提供电话、电传、电报、电视和数据传输等电信业务;该卫星已退役。
2D轨道图
3D轨道图
轨道高度分析图
轨道倾角分析图
轨道综合分析图
查看轨道综合分析图